Waarnemingen

Advertentie
Mijn weer
Koksijde, België (6400): temperatuur & dauwpunt: 20.01.2021 10:00:00 - 26.01.2021 10:00:00 (CET)Koksijde, België (6400): windsnelheid & windstoten: 20.01.2021 10:00:00 - 26.01.2021 10:00:00 (CET)Koksijde, België (6400): windrichting: 20.01.2021 10:00:00 - 26.01.2021 10:00:00 (CET)Koksijde, België (6400): luchtdruk: 20.01.2021 10:00:00 - 26.01.2021 10:00:00 (CET)Koksijde, België (6400): zicht: 20.01.2021 10:00:00 - 26.01.2021 10:00:00 (CET)
Datum & Tijd tt [°C] td [°C] ff [km/u] ff [kn] fx [km/u] fx [kn] dd ppp [hPa] vv [km]
26.01.2021 10:00:00 2,2 0,5 7 4 - - ZW 1019,2 20
26.01.2021 09:00:00 4,6 0,0 14 8 29 16 WNW 1018,6 20
26.01.2021 08:00:00 4,6 -0,7 18 10 36 19 NW 1018,1 20
26.01.2021 07:00:00 4,2 -0,3 18 10 - - WNW 1017,7 20
26.01.2021 06:00:00 3,8 -0,2 22 12 32 18 WNW 1017,5 20
26.01.2021 05:00:00 3,9 0,0 25 14 36 19 WNW 1017,2 20
26.01.2021 04:00:00 4,3 0,1 25 14 - - WNW 1016,7 20
26.01.2021 03:00:00 4,1 0,4 22 12 40 21 WNW 1016,1 20
26.01.2021 02:00:00 4,8 0,5 29 16 43 23 NW 1015,6 20
26.01.2021 01:00:00 4,7 0,9 29 16 - - NW 1015,1 20
26.01.2021 00:00:00 4,9 0,4 29 16 47 25 NW 1014,7 20
25.01.2021 23:00:00 4,8 0,9 29 16 43 23 WNW 1014,2 20
25.01.2021 22:00:00 4,9 0,9 29 16 - - WNW 1013,7 20
25.01.2021 21:00:00 5,0 0,9 29 16 43 23 WNW 1013,0 20
25.01.2021 20:00:00 5,1 1,1 29 16 50 27 NW 1012,5 20
25.01.2021 19:00:00 4,9 1,0 29 16 - - WNW 1011,8 20
25.01.2021 18:00:00 4,7 0,8 25 14 40 21 WNW 1011,2 20
25.01.2021 17:00:00 4,1 0,6 18 10 32 18 WNW 1010,7 20
25.01.2021 16:00:00 4,5 0,7 22 12 - - WNW 1010,1 20
25.01.2021 15:00:00 4,7 0,6 25 14 36 19 NW 1009,3 20
25.01.2021 14:00:00 5,2 0,3 22 12 32 18 NW 1008,8 20
25.01.2021 13:00:00 5,4 -0,2 22 12 - - NW 1008,5 20
25.01.2021 12:00:00 4,1 0,2 11 6 29 16 NNO 1007,8 20
25.01.2021 11:00:00 4,7 -0,1 18 10 29 16 N 1006,7 20
25.01.2021 10:00:00 4,1 -0,2 14 8 - - NNO 1005,6 20
25.01.2021 09:00:00 3,3 -0,4 18 10 32 18 N 1004,5 20
25.01.2021 08:00:00 2,5 -0,3 18 10 36 19 NO 1003,1 15
25.01.2021 07:00:00 3,0 -0,1 22 12 - - NNO 1002,1 15
25.01.2021 06:00:00 2,6 0,7 25 14 43 23 NO 1000,7 20
25.01.2021 05:00:00 1,3 0,8 18 10 29 16 NO 999,3 4,0
25.01.2021 04:00:00 1,7 1,1 14 8 - - NO 997,7 6
25.01.2021 03:00:00 1,6 1,1 11 6 18 10 Z 996,2 5
25.01.2021 02:00:00 1,7 0,9 14 8 22 12 ZW 995,6 7
25.01.2021 01:00:00 1,6 0,5 18 10 - - WZW 995,4 12
25.01.2021 00:00:00 2,0 0,6 22 12 25 14 ZW 994,8 13
24.01.2021 23:00:00 2,0 0,7 18 10 25 14 ZZW 994,4 20
24.01.2021 22:00:00 2,0 1,1 18 10 - - ZZW 994,3 15
24.01.2021 21:00:00 1,8 1,0 22 12 29 16 ZZW 994,0 18
24.01.2021 20:00:00 1,7 0,9 22 12 32 18 Z 994,2 17
24.01.2021 19:00:00 1,2 0,5 22 12 - - Z 994,3 14
24.01.2021 18:00:00 0,6 0,4 22 12 36 19 ZO 994,9 9
24.01.2021 17:00:00 1,2 0,3 22 12 40 21 ZZO 995,8 12
24.01.2021 16:00:00 2,2 -0,9 25 14 - - ZZO 996,4 20
24.01.2021 15:00:00 2,1 -0,7 22 12 29 16 ZZO 997,3 20
24.01.2021 14:00:00 2,4 -0,7 14 8 25 14 ZZO 998,2 20
24.01.2021 13:00:00 2,2 -0,7 18 10 - - Z 999,4 20
24.01.2021 12:00:00 1,7 -0,4 14 8 25 14 Z 1000,0 20
24.01.2021 11:00:00 0,8 -0,6 14 8 22 12 ZZW 1000,2 16
24.01.2021 10:00:00 0,4 -0,9 7 4 - - ZZW 1000,5 19
24.01.2021 09:00:00 -0,1 -1,2 11 6 14 8 ZZW 1000,5 12
24.01.2021 08:00:00 2,7 -1,3 11 6 22 12 W 999,8 20
24.01.2021 07:00:00 2,8 -1,1 11 6 - - WNW 999,5 20
24.01.2021 06:00:00 2,7 -0,9 18 10 29 16 WNW 999,4 20
24.01.2021 05:00:00 3,2 -0,4 22 12 32 18 WNW 999,3 20
24.01.2021 04:00:00 3,4 -0,8 18 10 - - NW 998,7 20
24.01.2021 03:00:00 3,4 -1,2 18 10 36 19 NW 998,3 20
24.01.2021 02:00:00 3,6 -1,9 22 12 32 18 NW 997,5 20
24.01.2021 01:00:00 3,5 0,0 25 14 - - NW 997,0 20
24.01.2021 00:00:00 2,8 -0,8 22 12 36 19 NW 996,4 20
23.01.2021 23:00:00 2,9 -0,6 22 12 40 21 NW 996,1 20
23.01.2021 22:00:00 2,9 0,0 22 12 - - NNW 995,7 20
23.01.2021 21:00:00 3,2 0,4 22 12 32 18 NNW 995,4 20
23.01.2021 20:00:00 3,3 0,2 18 10 36 19 NW 995,1 20
23.01.2021 19:00:00 3,5 0,9 14 8 - - NW 994,8 20
23.01.2021 18:00:00 4,1 1,3 14 8 25 14 NNW 994,5 20
23.01.2021 17:00:00 3,6 2,4 4 2 7 4 N 994,1 13
23.01.2021 16:00:00 4,1 2,6 4 2 - - N 993,7 17
23.01.2021 15:00:00 4,1 2,8 4 2 4 2 N 993,7 19
23.01.2021 14:00:00 4,0 2,7 4 2 11 6 N 993,8 19
23.01.2021 13:00:00 4,0 2,8 7 4 - - Z 994,1 15
23.01.2021 12:00:00 4,3 3,1 4 2 7 4 N 994,2 19
23.01.2021 11:00:00 2,2 1,8 4 2 7 4 N 994,3 10
23.01.2021 10:00:00 2,2 1,7 4 2 - - N 994,7 15
23.01.2021 09:00:00 1,9 1,4 4 2 14 8 N 994,7 8
23.01.2021 08:00:00 2,7 1,9 11 6 18 10 ZZW 994,7 19
23.01.2021 07:00:00 2,5 1,1 18 10 - - ZW 994,4 20
23.01.2021 06:00:00 2,1 1,3 11 6 18 10 ZZW 994,2 20
23.01.2021 05:00:00 2,6 1,5 14 8 22 12 ZW 994,3 20
23.01.2021 04:00:00 3,2 1,8 14 8 - - WZW 994,5 20
23.01.2021 03:00:00 3,5 1,9 18 10 25 14 ZW 994,7 20
23.01.2021 02:00:00 3,2 2,0 14 8 43 23 ZZW 995,0 20
23.01.2021 01:00:00 3,2 2,0 11 6 - - ZW 995,3 20
23.01.2021 00:00:00 3,7 2,6 14 8 36 19 ZW 995,3 19
22.01.2021 23:00:00 4,0 2,4 14 8 22 12 ZZW 995,4 20
22.01.2021 22:00:00 3,5 2,0 11 6 - - ZZW 995,6 19
22.01.2021 21:00:00 3,4 1,6 14 8 18 10 ZZW 995,8 20
22.01.2021 20:00:00 3,5 1,1 14 8 18 10 ZZW 995,9 20
22.01.2021 19:00:00 3,3 1,4 11 6 - - ZZW 995,8 20
22.01.2021 18:00:00 3,5 1,7 7 4 11 6 ZW 995,3 20
22.01.2021 17:00:00 4,8 2,3 7 4 14 8 ZW 995,2 20
22.01.2021 16:00:00 6,0 2,0 11 6 - - ZW 995,3 15
22.01.2021 15:00:00 6,3 3,3 14 8 22 12 WZW 994,9 15
22.01.2021 14:00:00 6,4 4,2 14 8 18 10 ZW 994,6 15
22.01.2021 13:00:00 5,8 3,6 11 6 - - WZW 994,4 15
22.01.2021 12:00:00 4,5 3,0 11 6 0 0 ZZW 994,2 15
22.01.2021 11:00:00 3,0 2,0 11 6 0 0 ZZW 993,8 15
22.01.2021 10:00:00 1,8 1,1 11 6 - - ZZW 992,7 15
22.01.2021 09:00:00 0,9 0,3 4 2 0 0 N 991,8 15
22.01.2021 08:00:00 1,3 0,5 11 6 0 0 ZW 991,1 20
22.01.2021 07:00:00 1,6 0,9 14 8 - - ZZW 990,5 20
22.01.2021 06:00:00 1,8 1,1 - - 0 0 - 990,0 20
22.01.2021 05:00:00 2,5 1,6 - - 0 0 - 989,6 20
22.01.2021 04:00:00 2,9 2,2 - - - - - 989,0 20
22.01.2021 03:00:00 3,4 2,4 - - 0 0 - 988,4 20
22.01.2021 02:00:00 4,1 2,9 - - 0 0 - 987,7 20
22.01.2021 01:00:00 4,1 3,3 - - - - - 987,0 20
22.01.2021 00:00:00 4,6 3,2 - - 0 0 - 986,1 20
21.01.2021 23:00:00 4,5 3,3 - - 0 0 - 985,1 20
21.01.2021 22:00:00 4,5 3,2 - - - - - 984,3 13
21.01.2021 21:00:00 4,9 4,6 - - 0 0 - 983,7 7
21.01.2021 20:00:00 4,9 4,5 11 6 0 0 ONO 984,1 4,7
21.01.2021 19:00:00 5,4 4,6 11 6 - - ZZO 985,6 4,0
21.01.2021 18:00:00 5,6 4,3 18 10 0 0 ZZW 987,8 8
21.01.2021 17:00:00 7,3 3,7 18 10 0 0 ZZW 988,7 15
21.01.2021 16:00:00 7,4 3,9 22 12 - - ZZW 989,6 15
21.01.2021 15:00:00 8,0 3,4 25 14 0 0 ZZW 990,1 15
21.01.2021 14:00:00 7,0 4,4 25 14 0 0 ZZW 990,5 6
21.01.2021 13:00:00 7,4 4,0 40 21 - - ZZW 991,1 12
21.01.2021 12:00:00 5,7 2,9 32 18 0 0 ZZW 991,1 20
21.01.2021 11:00:00 6,5 3,5 22 12 0 0 ZW 990,8 8
21.01.2021 10:00:00 6,0 2,6 40 21 - - ZW 990,6 20
21.01.2021 09:00:00 5,7 2,6 22 12 36 19 ZZW 990,1 12
21.01.2021 08:00:00 4,7 1,6 14 8 32 18 ZW 989,6 15
21.01.2021 07:00:00 5,6 1,1 29 16 - - WZW 988,9 15
21.01.2021 06:00:00 6,0 0,9 - - 0 0 - 987,9 20
21.01.2021 05:00:00 6,5 1,9 43 23 83 45 WZW 986,1 20
21.01.2021 04:00:00 7,7 3,1 50 27 - - WZW 983,8 20
21.01.2021 03:00:00 8,0 4,7 61 33 86 47 WZW 982,3 8
21.01.2021 02:00:00 10,5 6,7 50 27 79 43 ZZW 980,1 20
21.01.2021 01:00:00 9,6 6,2 50 27 - - ZZW 981,6 20
21.01.2021 00:00:00 9,6 5,5 43 23 68 37 Z 983,0 16
20.01.2021 23:00:00 10,0 4,4 36 19 58 31 Z 984,9 20
20.01.2021 22:00:00 9,4 4,4 36 19 - - ZZW 986,8 20
20.01.2021 21:00:00 9,4 4,5 36 19 54 29 Z 988,1 20
20.01.2021 20:00:00 9,3 4,2 32 18 50 27 Z 989,2 15
20.01.2021 19:00:00 9,5 4,0 29 16 - - ZZW 990,1 20
20.01.2021 18:00:00 9,0 3,5 25 14 36 19 Z 990,3 20
20.01.2021 17:00:00 8,9 3,6 25 14 43 23 Z 991,1 20
20.01.2021 16:00:00 9,1 4,0 29 16 - - Z 991,6 20
20.01.2021 15:00:00 9,1 3,9 32 18 43 23 ZZW 992,5 20
20.01.2021 14:00:00 8,5 4,5 29 16 58 31 ZZW 993,5 20
20.01.2021 13:00:00 8,3 4,9 32 18 - - Z 994,7 12
20.01.2021 12:00:00 8,3 5,0 29 16 50 27 ZZW 995,2 12
20.01.2021 11:00:00 8,0 4,9 32 18 47 25 ZZW 995,9 15
20.01.2021 10:00:00 7,6 4,9 29 16 - - ZZW 996,8 20

tt = temperatuur
td = dauwpunt
ff = windsnelheid
fx = windstoten
dd = windrichting
ppp = luchtdruk
vv = zicht

Weerstations in de omgeving